Year,Month,Day,Hour,Minute,Value (Times are PST for windspeed in km/hr)
2012,02,28,00,00,7.20
2012,02,28,00,01,5.10
2012,02,28,00,02,4.30
2012,02,28,00,03,8.60
2012,02,28,00,04,5.50
2012,02,28,00,05,3.30
2012,02,28,00,06,0.80
2012,02,28,00,07,3.90
2012,02,28,00,08,4.40
2012,02,28,00,09,6.10
2012,02,28,00,10,6.50
2012,02,28,00,11,4.80
2012,02,28,00,12,7.10
2012,02,28,00,13,7.10
2012,02,28,00,14,4.10
2012,02,28,00,15,2.70
2012,02,28,00,16,5.10
2012,02,28,00,17,3.10
2012,02,28,00,18,3.70
2012,02,28,00,19,3.90
2012,02,28,00,20,4.60
2012,02,28,00,21,6.10
2012,02,28,00,22,5.50
2012,02,28,00,23,5.60
2012,02,28,00,24,3.40
2012,02,28,00,25,4.30
2012,02,28,00,26,4.60
2012,02,28,00,27,5.70
2012,02,28,00,28,4.10
2012,02,28,00,29,7.70
2012,02,28,00,30,6.20
2012,02,28,00,31,5.70
2012,02,28,00,32,7.70
2012,02,28,00,33,4.30
2012,02,28,00,34,1.00
2012,02,28,00,35,5.40
2012,02,28,00,36,3.60
2012,02,28,00,37,4.00
2012,02,28,00,38,5.00
2012,02,28,00,39,3.10
2012,02,28,00,40,1.20
2012,02,28,00,41,1.60
2012,02,28,00,42,2.30
2012,02,28,00,43,3.00
2012,02,28,00,44,4.80
2012,02,28,00,45,4.70
2012,02,28,00,46,3.40
2012,02,28,00,47,2.50
2012,02,28,00,48,0.50
2012,02,28,00,49,0.10
2012,02,28,00,50,1.90
2012,02,28,00,51,2.30
2012,02,28,00,52,0.20
2012,02,28,00,53,3.20
2012,02,28,00,54,4.30
2012,02,28,00,55,4.10
2012,02,28,00,56,3.30
2012,02,28,00,57,3.30
2012,02,28,00,58,4.20
2012,02,28,00,59,3.70
2012,02,28,01,00,3.40
2012,02,28,01,01,3.20
2012,02,28,01,02,1.40
2012,02,28,01,03,3.70
2012,02,28,01,04,5.20
2012,02,28,01,05,8.60
2012,02,28,01,06,6.00
2012,02,28,01,07,6.90
2012,02,28,01,08,4.90
2012,02,28,01,09,4.70
2012,02,28,01,10,3.20
2012,02,28,01,11,3.40
2012,02,28,01,12,3.10
2012,02,28,01,13,1.90
2012,02,28,01,14,2.70
2012,02,28,01,15,0.30
2012,02,28,01,16,3.90
2012,02,28,01,17,2.70
2012,02,28,01,18,2.20
2012,02,28,01,19,2.40
2012,02,28,01,20,2.70
2012,02,28,01,21,1.90
2012,02,28,01,22,2.50
2012,02,28,01,23,1.70
2012,02,28,01,24,1.20
2012,02,28,01,25,2.50
2012,02,28,01,26,3.10
2012,02,28,01,27,4.10
2012,02,28,01,28,4.80
2012,02,28,01,29,2.20
2012,02,28,01,30,2.20
2012,02,28,01,31,4.70
2012,02,28,01,32,5.80
2012,02,28,01,33,7.90
2012,02,28,01,34,6.90
2012,02,28,01,35,7.20
2012,02,28,01,36,7.60
2012,02,28,01,37,9.90
2012,02,28,01,38,10.00
2012,02,28,01,39,8.40
2012,02,28,01,40,10.80
2012,02,28,01,41,10.10
2012,02,28,01,42,11.70
2012,02,28,01,43,13.00
2012,02,28,01,44,9.80
2012,02,28,01,45,7.70
2012,02,28,01,46,11.30
2012,02,28,01,47,5.70
2012,02,28,01,48,7.20
2012,02,28,01,49,11.00
2012,02,28,01,50,12.30
2012,02,28,01,51,10.10
2012,02,28,01,52,13.20
2012,02,28,01,53,8.30
2012,02,28,01,54,8.40
2012,02,28,01,55,7.90
2012,02,28,01,56,9.10
2012,02,28,01,57,10.70
2012,02,28,01,58,10.80
2012,02,28,01,59,8.50
2012,02,28,02,00,7.80
2012,02,28,02,01,8.30
2012,02,28,02,02,6.10
2012,02,28,02,03,6.10
2012,02,28,02,04,9.20
2012,02,28,02,05,7.20
2012,02,28,02,06,7.90
2012,02,28,02,07,5.60
2012,02,28,02,08,7.90
2012,02,28,02,09,6.90
2012,02,28,02,10,11.10
2012,02,28,02,11,6.10
2012,02,28,02,12,7.30
2012,02,28,02,13,9.60
2012,02,28,02,14,6.40
2012,02,28,02,15,4.70
2012,02,28,02,16,6.00
2012,02,28,02,17,5.10
2012,02,28,02,18,2.40
2012,02,28,02,19,3.80
2012,02,28,02,20,2.70
2012,02,28,02,21,1.60
2012,02,28,02,22,1.60
2012,02,28,02,23,4.60
2012,02,28,02,24,4.50
2012,02,28,02,25,4.30
2012,02,28,02,26,5.70
2012,02,28,02,27,3.30
2012,02,28,02,28,2.90
2012,02,28,02,29,4.50
2012,02,28,02,30,4.70
2012,02,28,02,31,2.80
2012,02,28,02,32,2.50
2012,02,28,02,33,3.30
2012,02,28,02,34,2.00
2012,02,28,02,35,1.90
2012,02,28,02,36,0.80
2012,02,28,02,37,0.30
2012,02,28,02,38,1.90
2012,02,28,02,39,3.00
2012,02,28,02,40,4.90
2012,02,28,02,41,2.20
2012,02,28,02,42,4.80
2012,02,28,02,43,3.90
2012,02,28,02,44,4.60
2012,02,28,02,45,3.30
2012,02,28,02,46,6.00
2012,02,28,02,47,5.30
2012,02,28,02,48,6.90
2012,02,28,02,49,5.90
2012,02,28,02,50,3.50
2012,02,28,02,51,4.60
2012,02,28,02,52,5.30
2012,02,28,02,53,2.60
2012,02,28,02,54,5.00
2012,02,28,02,55,5.80
2012,02,28,02,56,5.60
2012,02,28,02,57,4.60
2012,02,28,02,58,4.70
2012,02,28,02,59,7.00
2012,02,28,03,00,7.60
2012,02,28,03,01,8.10
2012,02,28,03,02,5.50
2012,02,28,03,03,6.90
2012,02,28,03,04,7.10
2012,02,28,03,05,6.30
2012,02,28,03,06,8.90
2012,02,28,03,07,7.90
2012,02,28,03,08,6.80
2012,02,28,03,09,6.10
2012,02,28,03,10,6.30
2012,02,28,03,11,7.30
2012,02,28,03,12,4.70
2012,02,28,03,13,6.80
2012,02,28,03,14,6.80
2012,02,28,03,15,8.10
2012,02,28,03,16,7.60
2012,02,28,03,17,6.90
2012,02,28,03,18,6.70
2012,02,28,03,19,7.80
2012,02,28,03,20,9.10
2012,02,28,03,21,10.90
2012,02,28,03,22,7.20
2012,02,28,03,23,7.00
2012,02,28,03,24,7.60
2012,02,28,03,25,6.40
2012,02,28,03,26,7.10
2012,02,28,03,27,7.80
2012,02,28,03,28,8.00
2012,02,28,03,29,7.70
2012,02,28,03,30,8.30
2012,02,28,03,31,6.90
2012,02,28,03,32,8.30
2012,02,28,03,33,9.10
2012,02,28,03,34,10.60
2012,02,28,03,35,7.70
2012,02,28,03,36,6.40
2012,02,28,03,37,4.20
2012,02,28,03,38,4.70
2012,02,28,03,39,5.60
2012,02,28,03,40,7.70
2012,02,28,03,41,4.80
2012,02,28,03,42,6.20
2012,02,28,03,43,6.20
2012,02,28,03,44,5.90
2012,02,28,03,45,5.40
2012,02,28,03,46,7.90
2012,02,28,03,47,5.90
2012,02,28,03,48,4.20
2012,02,28,03,49,5.50
2012,02,28,03,50,5.20
2012,02,28,03,51,6.80
2012,02,28,03,52,3.70
2012,02,28,03,53,5.50
2012,02,28,03,54,4.90
2012,02,28,03,55,6.10
2012,02,28,03,56,5.60
2012,02,28,03,57,6.00
2012,02,28,03,58,4.70
2012,02,28,03,59,6.80
2012,02,28,04,00,6.80
2012,02,28,04,01,6.50
2012,02,28,04,02,5.10
2012,02,28,04,03,4.00
2012,02,28,04,04,5.90
2012,02,28,04,05,5.30
2012,02,28,04,06,6.40
2012,02,28,04,07,6.50
2012,02,28,04,08,5.40
2012,02,28,04,09,4.70
2012,02,28,04,10,6.60
2012,02,28,04,11,6.00
2012,02,28,04,12,7.30
2012,02,28,04,13,5.10
2012,02,28,04,14,5.30
2012,02,28,04,15,6.60
2012,02,28,04,16,8.70
2012,02,28,04,17,7.60
2012,02,28,04,18,10.50
2012,02,28,04,19,12.80
2012,02,28,04,20,14.00
2012,02,28,04,21,9.80
2012,02,28,04,22,10.90
2012,02,28,04,23,9.70
2012,02,28,04,24,10.00
2012,02,28,04,25,9.80
2012,02,28,04,26,11.40
2012,02,28,04,27,7.50
2012,02,28,04,28,5.40
2012,02,28,04,29,8.90
2012,02,28,04,30,7.20
2012,02,28,04,31,13.80
2012,02,28,04,32,5.30
2012,02,28,04,33,6.60
2012,02,28,04,34,6.30
2012,02,28,04,35,9.80
2012,02,28,04,36,6.70
2012,02,28,04,37,6.20
2012,02,28,04,38,2.90
2012,02,28,04,39,3.20
2012,02,28,04,40,4.00
2012,02,28,04,41,2.40
2012,02,28,04,42,2.00
2012,02,28,04,43,2.00
2012,02,28,04,44,2.70
2012,02,28,04,45,1.60
2012,02,28,04,46,2.10
2012,02,28,04,47,1.70
2012,02,28,04,48,1.90
2012,02,28,04,49,1.80
2012,02,28,04,50,1.20
2012,02,28,04,51,4.70
2012,02,28,04,52,3.40
2012,02,28,04,53,0.80
2012,02,28,04,54,6.30
2012,02,28,04,55,2.50
2012,02,28,04,56,5.80
2012,02,28,04,57,4.80
2012,02,28,04,58,4.70
2012,02,28,04,59,6.30
2012,02,28,05,00,5.00
2012,02,28,05,01,6.60
2012,02,28,05,02,5.50
2012,02,28,05,03,4.30
2012,02,28,05,04,8.00
2012,02,28,05,05,8.00
2012,02,28,05,06,6.50
2012,02,28,05,07,5.90
2012,02,28,05,08,7.40
2012,02,28,05,09,7.10
2012,02,28,05,10,6.30
2012,02,28,05,11,7.90
2012,02,28,05,12,6.40
2012,02,28,05,13,5.40
2012,02,28,05,14,4.30
2012,02,28,05,15,3.50
2012,02,28,05,16,4.80
2012,02,28,05,17,4.80
2012,02,28,05,18,4.80
2012,02,28,05,19,6.00
2012,02,28,05,20,7.30
2012,02,28,05,21,7.70
2012,02,28,05,22,8.80
2012,02,28,05,23,11.10
2012,02,28,05,24,7.30
2012,02,28,05,25,7.70
2012,02,28,05,26,4.80
2012,02,28,05,27,9.70
2012,02,28,05,28,12.80
2012,02,28,05,29,8.00
2012,02,28,05,30,8.10
2012,02,28,05,31,8.90
2012,02,28,05,32,8.60
2012,02,28,05,33,9.70
2012,02,28,05,34,11.30
2012,02,28,05,35,7.70
2012,02,28,05,36,10.20
2012,02,28,05,37,7.70
2012,02,28,05,38,9.30
2012,02,28,05,39,7.60
2012,02,28,05,40,10.00
2012,02,28,05,41,10.60
2012,02,28,05,42,7.50
2012,02,28,05,43,6.00
2012,02,28,05,44,7.40
2012,02,28,05,45,11.00
2012,02,28,05,46,9.90
2012,02,28,05,47,6.60
2012,02,28,05,48,7.10
2012,02,28,05,49,7.20
2012,02,28,05,50,7.10
2012,02,28,05,51,7.30
2012,02,28,05,52,10.00
2012,02,28,05,53,8.60
2012,02,28,05,54,8.40
2012,02,28,05,55,7.70
2012,02,28,05,56,9.80
2012,02,28,05,57,5.50
2012,02,28,05,58,8.70
2012,02,28,05,59,9.90
2012,02,28,06,00,7.60
2012,02,28,06,01,9.80
2012,02,28,06,02,8.90
2012,02,28,06,03,8.40
2012,02,28,06,04,9.10
2012,02,28,06,05,9.40
2012,02,28,06,06,6.50
2012,02,28,06,07,6.80
2012,02,28,06,08,3.90
2012,02,28,06,09,4.30
2012,02,28,06,10,4.70
2012,02,28,06,11,7.20
2012,02,28,06,12,8.10
2012,02,28,06,13,7.90
2012,02,28,06,14,7.70
2012,02,28,06,15,7.60
2012,02,28,06,16,5.80
2012,02,28,06,17,5.70
2012,02,28,06,18,6.50
2012,02,28,06,19,7.20
2012,02,28,06,20,5.90
2012,02,28,06,21,6.00
2012,02,28,06,22,4.70
2012,02,28,06,23,5.50
2012,02,28,06,24,10.10
2012,02,28,06,25,5.70
2012,02,28,06,26,9.20
2012,02,28,06,27,9.70
2012,02,28,06,28,7.10
2012,02,28,06,29,8.00
2012,02,28,06,30,8.20
2012,02,28,06,31,7.70
2012,02,28,06,32,7.80
2012,02,28,06,33,6.40
2012,02,28,06,34,8.60
2012,02,28,06,35,7.70
2012,02,28,06,36,8.10
2012,02,28,06,37,10.30
2012,02,28,06,38,9.70
2012,02,28,06,39,11.30
2012,02,28,06,40,9.90
2012,02,28,06,41,11.60
2012,02,28,06,42,6.00
2012,02,28,06,43,7.60
2012,02,28,06,44,9.50
2012,02,28,06,45,7.80
2012,02,28,06,46,10.20
2012,02,28,06,47,8.00
2012,02,28,06,48,5.30
2012,02,28,06,49,8.10
2012,02,28,06,50,10.10
2012,02,28,06,51,7.80
2012,02,28,06,52,10.00
2012,02,28,06,53,7.80
2012,02,28,06,54,12.60
2012,02,28,06,55,10.80
2012,02,28,06,56,9.30
2012,02,28,06,57,15.30
2012,02,28,06,58,10.30
2012,02,28,06,59,10.00
2012,02,28,07,00,8.00
2012,02,28,07,01,5.20
2012,02,28,07,02,7.10
2012,02,28,07,03,5.80
2012,02,28,07,04,6.90
2012,02,28,07,05,9.40
2012,02,28,07,06,8.00
2012,02,28,07,07,14.90
2012,02,28,07,08,13.00
2012,02,28,07,09,10.90
2012,02,28,07,10,15.70
2012,02,28,07,11,14.00
2012,02,28,07,12,11.10
2012,02,28,07,13,9.10
2012,02,28,07,14,5.90
2012,02,28,07,15,7.20
2012,02,28,07,16,8.00
2012,02,28,07,17,12.50
2012,02,28,07,18,10.50
2012,02,28,07,19,10.10
2012,02,28,07,20,7.90
2012,02,28,07,21,6.10
2012,02,28,07,22,9.50
2012,02,28,07,23,8.50
2012,02,28,07,24,9.10
2012,02,28,07,25,10.80
2012,02,28,07,26,10.00
2012,02,28,07,27,4.90
2012,02,28,07,28,7.10
2012,02,28,07,29,9.40
2012,02,28,07,30,6.50
2012,02,28,07,31,7.20
2012,02,28,07,32,6.10
2012,02,28,07,33,9.50
2012,02,28,07,34,11.00
2012,02,28,07,35,4.80
2012,02,28,07,36,8.70
2012,02,28,07,37,7.90
2012,02,28,07,38,6.60
2012,02,28,07,39,8.10
2012,02,28,07,40,8.40
2012,02,28,07,41,9.20
2012,02,28,07,42,8.30
2012,02,28,07,43,11.70
2012,02,28,07,44,8.90
2012,02,28,07,45,7.40
2012,02,28,07,46,5.80
2012,02,28,07,47,7.60
2012,02,28,07,48,10.10
2012,02,28,07,49,7.70
2012,02,28,07,50,13.60
2012,02,28,07,51,8.10
2012,02,28,07,52,5.80
2012,02,28,07,53,6.60
2012,02,28,07,54,6.80
2012,02,28,07,55,8.20
2012,02,28,07,56,8.40
2012,02,28,07,57,9.50
2012,02,28,07,58,8.50
2012,02,28,07,59,13.00
2012,02,28,08,00,10.70
2012,02,28,08,01,8.80
2012,02,28,08,02,10.00
2012,02,28,08,03,10.40
2012,02,28,08,04,9.30
2012,02,28,08,05,13.10
2012,02,28,08,06,9.20
2012,02,28,08,07,4.20
2012,02,28,08,08,6.20
2012,02,28,08,09,9.70
2012,02,28,08,10,11.60
2012,02,28,08,11,11.20
2012,02,28,08,12,12.90
2012,02,28,08,13,12.00
2012,02,28,08,14,14.20
2012,02,28,08,15,10.40
2012,02,28,08,16,5.30
2012,02,28,08,17,9.30
2012,02,28,08,18,9.60
2012,02,28,08,19,11.40
2012,02,28,08,20,6.70
2012,02,28,08,21,3.60
2012,02,28,08,22,6.40
2012,02,28,08,23,7.10
2012,02,28,08,24,7.70
2012,02,28,08,25,10.50
2012,02,28,08,26,9.60
2012,02,28,08,27,11.80
2012,02,28,08,28,5.10
2012,02,28,08,29,6.90
2012,02,28,08,30,8.30
2012,02,28,08,31,7.40
2012,02,28,08,32,9.20
2012,02,28,08,33,12.80
2012,02,28,08,34,10.00
2012,02,28,08,35,8.50
2012,02,28,08,36,7.80
2012,02,28,08,37,3.00
2012,02,28,08,38,5.70
2012,02,28,08,39,6.20
2012,02,28,08,40,11.90
2012,02,28,08,41,7.90
2012,02,28,08,42,11.50
2012,02,28,08,43,13.70
2012,02,28,08,44,8.80
2012,02,28,08,45,10.20
2012,02,28,08,46,6.80
2012,02,28,08,47,4.80
2012,02,28,08,48,5.70
2012,02,28,08,49,5.80
2012,02,28,08,50,5.40
2012,02,28,08,51,8.20
2012,02,28,08,52,6.70
2012,02,28,08,53,8.90
2012,02,28,08,54,5.30
2012,02,28,08,55,7.00
2012,02,28,08,56,3.80
2012,02,28,08,57,4.70
2012,02,28,08,58,6.20
2012,02,28,08,59,4.60
2012,02,28,09,00,5.90
2012,02,28,09,01,4.30
2012,02,28,09,02,11.70
2012,02,28,09,03,3.10
2012,02,28,09,04,8.50
2012,02,28,09,05,6.20
2012,02,28,09,06,8.40
2012,02,28,09,07,12.90
2012,02,28,09,08,11.00
2012,02,28,09,09,6.40
2012,02,28,09,10,4.70
2012,02,28,09,11,9.30
2012,02,28,09,12,11.20
2012,02,28,09,13,7.80
2012,02,28,09,14,7.70
2012,02,28,09,15,18.60
2012,02,28,09,16,15.90
2012,02,28,09,17,10.10
2012,02,28,09,18,6.60
2012,02,28,09,19,10.10
2012,02,28,09,20,11.80
2012,02,28,09,21,9.30
2012,02,28,09,22,12.30
2012,02,28,09,23,13.40
2012,02,28,09,24,13.80
2012,02,28,09,25,14.80
2012,02,28,09,26,12.20
2012,02,28,09,27,12.70
2012,02,28,09,28,6.30
2012,02,28,09,29,8.10
2012,02,28,09,30,7.80
2012,02,28,09,31,8.00
2012,02,28,09,32,7.00
2012,02,28,09,33,6.50
2012,02,28,09,34,13.50
2012,02,28,09,35,12.80
2012,02,28,09,36,5.30
2012,02,28,09,37,12.80
2012,02,28,09,38,7.10
2012,02,28,09,39,7.10
2012,02,28,09,40,7.10
2012,02,28,09,41,9.30
2012,02,28,09,42,11.90
2012,02,28,09,43,5.20
2012,02,28,09,44,6.30
2012,02,28,09,45,12.10
2012,02,28,09,46,7.10
2012,02,28,09,47,2.70
2012,02,28,09,48,7.30
2012,02,28,09,49,9.40
2012,02,28,09,50,10.00
2012,02,28,09,51,11.00
2012,02,28,09,52,11.40
2012,02,28,09,53,13.00
2012,02,28,09,54,11.00
2012,02,28,09,55,3.60
2012,02,28,09,56,7.20
2012,02,28,09,57,10.00
2012,02,28,09,58,7.20
2012,02,28,09,59,11.50
2012,02,28,10,00,8.90
2012,02,28,10,01,10.40
2012,02,28,10,02,13.30
2012,02,28,10,03,14.70
2012,02,28,10,04,15.60
2012,02,28,10,05,13.50
2012,02,28,10,06,10.10
2012,02,28,10,07,5.60
2012,02,28,10,08,8.40
2012,02,28,10,09,11.00
2012,02,28,10,10,11.40
2012,02,28,10,11,9.30
2012,02,28,10,12,14.10
2012,02,28,10,13,8.60
2012,02,28,10,14,11.20
2012,02,28,10,15,15.30
2012,02,28,10,16,13.40
2012,02,28,10,17,11.90
2012,02,28,10,18,10.50
2012,02,28,10,19,8.60
2012,02,28,10,20,11.30
2012,02,28,10,21,7.80
2012,02,28,10,22,13.40
2012,02,28,10,23,6.70
2012,02,28,10,24,8.50
2012,02,28,10,25,11.80
2012,02,28,10,26,9.70
2012,02,28,10,27,8.20
2012,02,28,10,28,10.90
2012,02,28,10,29,11.00
2012,02,28,10,30,5.20
2012,02,28,10,31,7.40
2012,02,28,10,32,6.60
2012,02,28,10,33,12.30
2012,02,28,10,34,10.50
2012,02,28,10,35,11.20
2012,02,28,10,36,9.60
2012,02,28,10,37,10.70
2012,02,28,10,38,12.20
2012,02,28,10,39,14.20
2012,02,28,10,40,12.90
2012,02,28,10,41,11.10
2012,02,28,10,42,10.50
2012,02,28,10,43,15.60
2012,02,28,10,44,13.80
2012,02,28,10,45,8.30
2012,02,28,10,46,15.80
2012,02,28,10,47,8.10
2012,02,28,10,48,4.30
2012,02,28,10,49,12.60
2012,02,28,10,50,11.40
2012,02,28,10,51,17.00
2012,02,28,10,52,10.20
2012,02,28,10,53,8.10
2012,02,28,10,54,8.50
2012,02,28,10,55,9.30
2012,02,28,10,56,11.70
2012,02,28,10,57,13.70
2012,02,28,10,58,10.00
2012,02,28,10,59,12.50
2012,02,28,11,00,10.30
2012,02,28,11,01,12.20
2012,02,28,11,02,6.70
2012,02,28,11,03,9.50
2012,02,28,11,04,17.00
2012,02,28,11,05,11.80
2012,02,28,11,06,8.50
2012,02,28,11,07,9.90
2012,02,28,11,08,4.50
2012,02,28,11,09,9.70
2012,02,28,11,10,10.70
2012,02,28,11,11,8.10
2012,02,28,11,12,10.20
2012,02,28,11,13,15.50
2012,02,28,11,14,13.70
2012,02,28,11,15,11.20
2012,02,28,11,16,11.10
2012,02,28,11,17,11.50
2012,02,28,11,18,5.90
2012,02,28,11,19,9.60
2012,02,28,11,20,15.30
2012,02,28,11,21,16.10
2012,02,28,11,22,11.30
2012,02,28,11,23,8.50
2012,02,28,11,24,12.60
2012,02,28,11,25,15.70
2012,02,28,11,26,21.40
2012,02,28,11,27,21.20
2012,02,28,11,28,11.70
2012,02,28,11,29,17.20
2012,02,28,11,30,8.70
2012,02,28,11,31,2.50
2012,02,28,11,32,14.20
2012,02,28,11,33,13.90
2012,02,28,11,34,15.90
2012,02,28,11,35,11.50
2012,02,28,11,36,7.60
2012,02,28,11,37,16.20
2012,02,28,11,38,7.00
2012,02,28,11,39,9.60
2012,02,28,11,40,15.60
2012,02,28,11,41,14.00
2012,02,28,11,42,7.20
2012,02,28,11,43,12.30
2012,02,28,11,44,15.80
2012,02,28,11,45,17.70
2012,02,28,11,46,15.10
2012,02,28,11,47,8.40
2012,02,28,11,48,6.40
2012,02,28,11,49,11.00
2012,02,28,11,50,18.20
2012,02,28,11,51,10.20
2012,02,28,11,52,13.00
2012,02,28,11,53,11.20
2012,02,28,11,54,8.20
2012,02,28,11,55,19.80
2012,02,28,11,56,21.90
2012,02,28,11,57,11.50
2012,02,28,11,58,8.90
2012,02,28,11,59,10.20
2012,02,28,12,00,12.30
2012,02,28,12,01,13.80
2012,02,28,12,02,10.20
2012,02,28,12,03,22.40
2012,02,28,12,04,17.10
2012,02,28,12,05,9.00
2012,02,28,12,06,7.90
2012,02,28,12,07,15.10
2012,02,28,12,08,7.30
2012,02,28,12,09,10.50
2012,02,28,12,10,14.30
2012,02,28,12,11,19.50
2012,02,28,12,12,7.70
2012,02,28,12,13,10.10
2012,02,28,12,14,11.90
2012,02,28,12,15,5.80
2012,02,28,12,16,8.90
2012,02,28,12,17,17.80
2012,02,28,12,18,15.90
2012,02,28,12,19,12.60
2012,02,28,12,20,11.00
2012,02,28,12,21,8.80
2012,02,28,12,22,9.70
2012,02,28,12,23,8.50
2012,02,28,12,24,11.30
2012,02,28,12,25,5.10
2012,02,28,12,26,8.60
2012,02,28,12,27,8.40
2012,02,28,12,28,9.10
2012,02,28,12,29,18.50
2012,02,28,12,30,9.60
2012,02,28,12,31,13.80
2012,02,28,12,32,15.90
2012,02,28,12,33,16.60
2012,02,28,12,34,8.50
2012,02,28,12,35,12.10
2012,02,28,12,36,14.40
2012,02,28,12,37,12.80
2012,02,28,12,38,16.20
2012,02,28,12,39,18.40
2012,02,28,12,40,10.70
2012,02,28,12,41,14.70
2012,02,28,12,42,14.20
2012,02,28,12,43,12.70
2012,02,28,12,44,10.90
2012,02,28,12,45,11.70
2012,02,28,12,46,11.70
2012,02,28,12,47,14.80
2012,02,28,12,48,17.10
2012,02,28,12,49,17.90
2012,02,28,12,50,19.10
2012,02,28,12,51,19.20
2012,02,28,12,52,6.50
2012,02,28,12,53,19.20
2012,02,28,12,54,16.80
2012,02,28,12,55,6.90
2012,02,28,12,56,6.10
2012,02,28,12,57,8.40
2012,02,28,12,58,11.00
2012,02,28,12,59,12.50
2012,02,28,13,00,12.70
2012,02,28,13,01,6.90
2012,02,28,13,02,9.20
2012,02,28,13,03,14.20
2012,02,28,13,04,9.60
2012,02,28,13,05,5.50
2012,02,28,13,06,11.70
2012,02,28,13,07,15.30
2012,02,28,13,08,11.60
2012,02,28,13,09,10.90
2012,02,28,13,10,19.80
2012,02,28,13,11,9.40
2012,02,28,13,12,14.40
2012,02,28,13,13,19.60
2012,02,28,13,14,15.50
2012,02,28,13,15,9.40
2012,02,28,13,16,12.50
2012,02,28,13,17,12.90
2012,02,28,13,18,10.70
2012,02,28,13,19,13.20
2012,02,28,13,20,15.00
2012,02,28,13,21,13.60
2012,02,28,13,22,15.00
2012,02,28,13,23,17.50
2012,02,28,13,24,19.90
2012,02,28,13,25,11.70
2012,02,28,13,26,12.80
2012,02,28,13,27,18.00
2012,02,28,13,28,12.90
2012,02,28,13,29,14.70
2012,02,28,13,30,7.80
2012,02,28,13,31,12.10
2012,02,28,13,32,11.40
2012,02,28,13,33,8.40
2012,02,28,13,34,13.80
2012,02,28,13,35,10.90
2012,02,28,13,36,14.90
2012,02,28,13,37,19.50
2012,02,28,13,38,15.10
2012,02,28,13,39,7.70
2012,02,28,13,40,14.20
2012,02,28,13,41,17.40
2012,02,28,13,42,15.00
2012,02,28,13,43,7.70
2012,02,28,13,44,15.70
2012,02,28,13,45,21.00
2012,02,28,13,46,16.00
2012,02,28,13,47,16.50
2012,02,28,13,48,15.30
2012,02,28,13,49,24.80
2012,02,28,13,50,12.70
2012,02,28,13,51,18.40
2012,02,28,13,52,20.00
2012,02,28,13,53,21.50
2012,02,28,13,54,16.20
2012,02,28,13,55,18.30
2012,02,28,13,56,19.70
2012,02,28,13,57,16.00
2012,02,28,13,58,21.20
2012,02,28,13,59,20.20
2012,02,28,14,00,24.10
2012,02,28,14,01,20.20
2012,02,28,14,02,14.00
2012,02,28,14,03,20.00
2012,02,28,14,04,24.60
2012,02,28,14,05,15.30
2012,02,28,14,06,22.20
2012,02,28,14,07,14.90
2012,02,28,14,08,19.20
2012,02,28,14,09,22.50
2012,02,28,14,10,20.70
2012,02,28,14,11,18.90
2012,02,28,14,12,22.00
2012,02,28,14,13,16.70
2012,02,28,14,14,17.40
2012,02,28,14,15,15.50
2012,02,28,14,16,20.40
2012,02,28,14,17,10.30
2012,02,28,14,18,14.90
2012,02,28,14,19,13.00
2012,02,28,14,20,13.70
2012,02,28,14,21,24.70
2012,02,28,14,22,15.30
2012,02,28,14,23,12.20
2012,02,28,14,24,14.70
2012,02,28,14,25,19.10
2012,02,28,14,26,13.40
2012,02,28,14,27,12.10
2012,02,28,14,28,21.10
2012,02,28,14,29,13.90
2012,02,28,14,30,22.90
2012,02,28,14,31,17.40
2012,02,28,14,32,10.40
2012,02,28,14,33,20.00
2012,02,28,14,34,13.60
2012,02,28,14,35,20.90
2012,02,28,14,36,16.30
2012,02,28,14,37,15.40
2012,02,28,14,38,16.90
2012,02,28,14,39,13.10
2012,02,28,14,40,16.50
2012,02,28,14,41,14.90
2012,02,28,14,42,18.00
2012,02,28,14,43,19.00
2012,02,28,14,44,15.00
2012,02,28,14,45,14.20
2012,02,28,14,46,16.60
2012,02,28,14,47,16.70
2012,02,28,14,48,15.50
2012,02,28,14,49,11.50
2012,02,28,14,50,9.70
2012,02,28,14,51,12.40
2012,02,28,14,52,9.10
2012,02,28,14,53,12.20
2012,02,28,14,54,17.90
2012,02,28,14,55,17.10
2012,02,28,14,56,14.40
2012,02,28,14,57,15.10
2012,02,28,14,58,9.70
2012,02,28,14,59,17.90
2012,02,28,15,00,15.40
2012,02,28,15,01,12.70
2012,02,28,15,02,13.40
2012,02,28,15,03,17.10
2012,02,28,15,04,16.90
2012,02,28,15,05,20.80
2012,02,28,15,06,13.60
2012,02,28,15,07,18.20
2012,02,28,15,08,20.50
2012,02,28,15,09,25.90
2012,02,28,15,10,24.30
2012,02,28,15,11,19.30
2012,02,28,15,12,22.50
2012,02,28,15,13,22.40
2012,02,28,15,14,15.50
2012,02,28,15,15,16.10
2012,02,28,15,16,24.70
2012,02,28,15,17,24.40
2012,02,28,15,18,21.40
2012,02,28,15,19,11.30
2012,02,28,15,20,10.60
2012,02,28,15,21,15.30
2012,02,28,15,22,13.90
2012,02,28,15,23,21.70
2012,02,28,15,24,11.20
2012,02,28,15,25,19.40
2012,02,28,15,26,21.90
2012,02,28,15,27,12.50
2012,02,28,15,28,17.30
2012,02,28,15,29,13.90
2012,02,28,15,30,11.40
2012,02,28,15,31,13.00
2012,02,28,15,32,21.50
2012,02,28,15,33,9.70
2012,02,28,15,34,15.80
2012,02,28,15,35,16.60
2012,02,28,15,36,14.30
2012,02,28,15,37,18.10
2012,02,28,15,38,15.80
2012,02,28,15,39,11.20
2012,02,28,15,40,20.30
2012,02,28,15,41,29.40
2012,02,28,15,42,23.10
2012,02,28,15,43,21.60
2012,02,28,15,44,18.60
2012,02,28,15,45,18.50
2012,02,28,15,46,19.20
2012,02,28,15,47,23.70
2012,02,28,15,48,19.70
2012,02,28,15,49,11.80
2012,02,28,15,50,15.90
2012,02,28,15,51,16.70
2012,02,28,15,52,10.10
2012,02,28,15,53,14.30
2012,02,28,15,54,11.70
2012,02,28,15,55,22.70
2012,02,28,15,56,14.60
2012,02,28,15,57,18.00
2012,02,28,15,58,10.10
2012,02,28,15,59,11.80
2012,02,28,16,00,14.90
2012,02,28,16,01,9.60
2012,02,28,16,02,14.80
2012,02,28,16,03,12.90
2012,02,28,16,04,9.70
2012,02,28,16,05,16.90
2012,02,28,16,06,7.70
2012,02,28,16,07,12.40
2012,02,28,16,08,14.40
2012,02,28,16,09,11.20
2012,02,28,16,10,11.30
2012,02,28,16,11,14.40
2012,02,28,16,12,7.90
2012,02,28,16,13,10.30
2012,02,28,16,14,13.00
2012,02,28,16,15,9.80
2012,02,28,16,16,8.10
2012,02,28,16,17,14.60
2012,02,28,16,18,23.40
2012,02,28,16,19,29.50
2012,02,28,16,20,16.50
2012,02,28,16,21,19.30
2012,02,28,16,22,16.20
2012,02,28,16,23,15.50
2012,02,28,16,24,20.10
2012,02,28,16,25,7.60
2012,02,28,16,26,14.80
2012,02,28,16,27,15.20
2012,02,28,16,28,14.00
2012,02,28,16,29,13.90
2012,02,28,16,30,14.10
2012,02,28,16,31,19.60
2012,02,28,16,32,18.70
2012,02,28,16,33,18.90
2012,02,28,16,34,22.40
2012,02,28,16,35,27.10
2012,02,28,16,36,24.00
2012,02,28,16,37,16.90
2012,02,28,16,38,10.90
2012,02,28,16,39,18.70
2012,02,28,16,40,24.10
2012,02,28,16,41,22.10
2012,02,28,16,42,15.90
2012,02,28,16,43,23.40
2012,02,28,16,44,17.80
2012,02,28,16,45,14.20
2012,02,28,16,46,14.70
2012,02,28,16,47,23.70
2012,02,28,16,48,25.60
2012,02,28,16,49,21.00
2012,02,28,16,50,19.50
2012,02,28,16,51,15.10
2012,02,28,16,52,22.80
2012,02,28,16,53,20.60
2012,02,28,16,54,13.00
2012,02,28,16,55,31.70
2012,02,28,16,56,21.40
2012,02,28,16,57,25.50
2012,02,28,16,58,22.00
2012,02,28,16,59,24.10
2012,02,28,17,00,14.90
2012,02,28,17,01,14.70
2012,02,28,17,02,9.10
2012,02,28,17,03,13.40
2012,02,28,17,04,24.00
2012,02,28,17,05,21.10
2012,02,28,17,06,28.00
2012,02,28,17,07,21.10
2012,02,28,17,08,20.50
2012,02,28,17,09,11.80
2012,02,28,17,10,20.50
2012,02,28,17,11,9.70
2012,02,28,17,12,18.20
2012,02,28,17,13,24.20
2012,02,28,17,14,16.40
2012,02,28,17,15,27.80
2012,02,28,17,16,23.50
2012,02,28,17,17,18.70
2012,02,28,17,18,25.60
2012,02,28,17,19,28.00
2012,02,28,17,20,22.30
2012,02,28,17,21,22.00
2012,02,28,17,22,15.30
2012,02,28,17,23,16.80
2012,02,28,17,24,23.20
2012,02,28,17,25,22.00
2012,02,28,17,26,16.00
2012,02,28,17,27,19.00
2012,02,28,17,28,23.50
2012,02,28,17,29,13.70
2012,02,28,17,30,18.30
2012,02,28,17,31,19.80
2012,02,28,17,32,21.40
2012,02,28,17,33,19.80
2012,02,28,17,34,18.80
2012,02,28,17,35,17.20
2012,02,28,17,36,14.00
2012,02,28,17,37,18.20
2012,02,28,17,38,11.00
2012,02,28,17,39,8.90
2012,02,28,17,40,14.40
2012,02,28,17,41,13.50
2012,02,28,17,42,13.00
2012,02,28,17,43,14.90
2012,02,28,17,44,5.70